• MPC Preparation (Info)

  • MPEC 2014-B86 : 2014 BV59

    The following Minor Planet Electronic Circular may be linked-to from your own Web pages, but must not otherwise be redistributed electronically.

    A form allowing access to any MPEC is at the bottom of this page.


    Read MPEC 2014-B85 Read MPEC 2014-B87


    M.P.E.C. 2014-B86                                Issued 2014 Jan. 30, 23:10 UT
    
         The Minor Planet Electronic Circulars contain information on unusual
             minor planets and routine data on comets.  They are published
       on behalf of Commission 20 of the International Astronomical Union by the
              Minor Planet Center, Smithsonian Astrophysical Observatory,
                              Cambridge, MA 02138, U.S.A.
    
                 Prepared using the Tamkin Foundation Computer Network
    
                                  MPC@CFA.HARVARD.EDU
                URL https://www.minorplanetcenter.net/    ISSN 1523-6714
    
                                       2014 BV59
    
    Observations:
         K14B59V* C2014 01 28.31020 09 23 20.59 +30 50 22.7          23.0 VqEB086G96
         K14B59V  C2014 01 28.31479 09 23 20.36 +30 50 38.7          22.6 VqEB086G96
         K14B59V  C2014 01 28.31937 09 23 20.09 +30 50 54.9          21.6 VqEB086G96
         K14B59V  C2014 01 28.32396 09 23 19.87 +30 51 11.6          21.6 VqEB086G96
         K14B59V KC2014 01 28.44144 09 23 13.64 +30 58 05.4          21.2 RoEB086291
         K14B59V KC2014 01 28.44469 09 23 13.46 +30 58 16.9          21.2 RoEB086291
         K14B59V KC2014 01 28.44795 09 23 13.30 +30 58 27.9          21.5 RoEB086291
         K14B59V  C2014 01 28.46575 09 23 12.34 +30 59 29.6                qEB086G96
         K14B59V  C2014 01 28.47029 09 23 12.11 +30 59 45.3          21.6 VqEB086G96
         K14B59V FC2014 01 30.29261 09 21 58.45 +32 44 33.3                qEB086H21
         K14B59V HC2014 01 30.30718 09 21 57.61 +32 45 21.2                qEB086H21
         K14B59V KC2014 01 30.32167 09 21 56.92 +32 46 11.0          21.9 VqEB086H21
    
    Observer details:
    291 LPL/Spacewatch II.  Observer R. A. Mastaler.  1.8-m f/2.7 reflector + CCD.
    G96 Mt. Lemmon Survey.  Observer A. R. Gibbs.  Measurers E. J. Christensen,
        A. R. Gibbs, A. D. Grauer, R. E. Hill, J. A. Johnson, R. A. Kowalski,
        S. M. Larson, F. C. Shelly.  1.5-m reflector + CCD.
    H21 Astronomical Research Observatory, Westfield.  Observer R. Holmes.
        Measurers L. Buzzi, S. Foglia, T. Vorobjov, T. Linder, H. Devore.  0.76-m
        f/3.0 astrograph + CCD.
    
    Orbital elements:
    2014 BV59                                                Earth MOID = 0.2067 AU
    Epoch 2013 Nov. 4.0 TT = JDT 2456600.5                  MPC
    M 350.46229              (2000.0)            P               Q
    n   0.61718977     Peri.  314.18221     +0.27752408     -0.93129310
    a   1.3662292      Node   118.32271     +0.94007953     +0.21260999
    e   0.1547071      Incl.   15.54765     +0.19806785     +0.29578734
    P   1.60           H   23.8           G   0.15           U   8
    Residuals in seconds of arc
    140128 G96  0.1-  0.2+    140128 291  0.2+  0.0     140128 G96  0.4-  0.1+
    140128 G96  0.1+  0.1-    140128 291  0.0   0.2+    140130 H21  0.2-  0.1+
    140128 G96  0.2-  0.3-    140128 291  0.1+  0.2-    140130 H21  0.6-  0.8-
    140128 G96  0.2+  0.1+    140128 G96  0.4-  0.1+    140130 H21  0.8+  0.6+
    
    Ephemeris:
    2014 BV59                a,e,i = 1.37, 0.15, 16                  q = 1.1549
    Date    TT    R. A. (2000) Decl.     Delta      r     Elong.  Phase     V
    2013 12 31    09 22 31.5 +01 24 00   0.2618  1.1833   135.1    35.9    22.7
    ...
    2014 01 15    09 28 19.3 +16 23 19   0.2401  1.2059   155.3    19.9    22.1
    ...
    2014 01 23    09 26 18.8 +25 18 37   0.2437  1.2200   163.6    13.1    21.9
    ...
    2014 01 29    09 22 52.5 +31 30 47   0.2543  1.2314   164.0    12.7    22.0
    2014 01 30    09 22 11.1 +32 28 06   0.2566  1.2333   163.5    13.1    22.1
    2014 01 31    09 21 28.3 +33 23 49   0.2592  1.2353   162.9    13.6    22.1
    ...
    2014 02 06    09 16 56.1 +38 20 53   0.2781  1.2474   157.4    17.7    22.4
    ...
    2014 02 14    09 11 21.8 +43 12 22   0.3114  1.2643   148.9    23.8    22.9
    ...
    2014 03 01    09 07 28.5 +47 38 14   0.3920  1.2976   134.9    32.7    23.7
    
    A. U. Tomatic                (C) Copyright 2014 MPC           M.P.E.C. 2014-B86
    

    Read MPEC 2014-B85 Read MPEC 2014-B87


    MPEC number:

    Enter an MPEC number in one of the following forms:

    • 1997-B01 (the full form)
    • J97B01 (the packed version of the full form)
    • B01 (the abbreviated form)